YRSRG EDMA-EDTM

Flight info

Callsign YRSRG
Flight time 0h 34m
Altitude 9000
Route RIDAR8F RIDAR DCT OLASO DCT MOMUK Y112 RAVED
Aircraft TBM9/L-SDFGRWY/S

Departure

Time 2026-05-04 13:23
Airport Augsburg Airport (EDMA)

Arrival

Time 2026-05-04 13:57
Airport Mengen-Hohentengen Airfield (EDTM)
Time Latitude Longitude Altitude Speed Heading
2026-05-04 12:54 48.42039 10.92508 1518 ft 0 kts 340°
2026-05-04 13:19 48.42045 10.92503 1518 ft 0 kts 335°
2026-05-04 13:19 48.42061 10.92492 1518 ft 4 kts 334°
2026-05-04 13:20 48.42095 10.92471 1518 ft 5 kts 351°
2026-05-04 13:20 48.42135 10.92468 1518 ft 5 kts 342°
2026-05-04 13:20 48.42173 10.92449 1518 ft 5 kts 341°
2026-05-04 13:20 48.42209 10.92430 1518 ft 5 kts 341°
2026-05-04 13:21 48.42247 10.92411 1518 ft 5 kts 341°
2026-05-04 13:21 48.42287 10.92390 1518 ft 6 kts 341°
2026-05-04 13:21 48.42327 10.92370 1518 ft 6 kts 343°
2026-05-04 13:21 48.42346 10.92386 1518 ft 0 kts 72°
2026-05-04 13:22 48.42418 10.92713 1518 ft 72 kts 71°
2026-05-04 13:22 48.42622 10.93672 1659 ft 108 kts 70°
2026-05-04 13:22 48.42830 10.94795 2072 ft 117 kts 75°
2026-05-04 13:23 48.43087 10.96063 2451 ft 133 kts 70°
2026-05-04 13:23 48.43380 10.97403 2905 ft 144 kts 68°
2026-05-04 13:23 48.43715 10.98831 3490 ft 143 kts 68°
2026-05-04 13:23 48.44047 11.00267 4009 ft 147 kts 66°
2026-05-04 13:24 48.44394 11.01762 4439 ft 157 kts 66°
2026-05-04 13:24 48.44737 11.03261 4957 ft 158 kts 66°
2026-05-04 13:24 48.45102 11.04858 5469 ft 162 kts 66°
2026-05-04 13:25 48.45900 11.08044 6583 ft 162 kts 48°
2026-05-04 13:25 48.46800 11.08858 7140 ft 149 kts
2026-05-04 13:25 48.47842 11.08618 7425 ft 163 kts 340°
2026-05-04 13:25 48.48998 11.08136 7618 ft 180 kts 340°
2026-05-04 13:26 48.50122 11.07347 7849 ft 182 kts 311°
2026-05-04 13:26 48.50716 11.05674 8162 ft 182 kts 290°
2026-05-04 13:26 48.51177 11.03908 8491 ft 183 kts 289°
2026-05-04 13:26 48.51633 11.02121 8830 ft 182 kts 289°
2026-05-04 13:27 48.52097 11.00298 8976 ft 192 kts 289°
2026-05-04 13:27 48.52584 10.98362 8982 ft 203 kts 290°
2026-05-04 13:27 48.53101 10.96324 8979 ft 212 kts 290°
2026-05-04 13:27 48.53639 10.94226 8975 ft 217 kts 289°
2026-05-04 13:28 48.54170 10.92088 8971 ft 220 kts 292°
2026-05-04 13:28 48.54720 10.89940 8970 ft 222 kts 290°
2026-05-04 13:28 48.55271 10.87759 8968 ft 223 kts 291°
2026-05-04 13:28 48.55827 10.85542 8966 ft 224 kts 292°
2026-05-04 13:29 48.56601 10.83556 8931 ft 223 kts 317°
2026-05-04 13:29 48.57735 10.81994 8973 ft 221 kts 313°
2026-05-04 13:29 48.58795 10.80331 8967 ft 221 kts 312°
2026-05-04 13:29 48.59494 10.78294 8943 ft 226 kts 280°
2026-05-04 13:30 48.59083 10.76012 8966 ft 237 kts 241°
2026-05-04 13:30 48.57728 10.74537 8965 ft 253 kts 206°
2026-05-04 13:30 48.56028 10.73791 8974 ft 256 kts 201°
2026-05-04 13:30 48.54319 10.73010 8954 ft 253 kts 210°
2026-05-04 13:31 48.53002 10.71444 8967 ft 242 kts 231°
2026-05-04 13:31 48.51810 10.69635 8966 ft 243 kts 232°
2026-05-04 13:31 48.50624 10.67832 8968 ft 243 kts 231°
2026-05-04 13:31 48.49417 10.66009 8966 ft 244 kts 231°
2026-05-04 13:32 48.48220 10.64204 8963 ft 244 kts 231°
2026-05-04 13:32 48.47025 10.62399 8966 ft 243 kts 231°
2026-05-04 13:32 48.45830 10.60596 8965 ft 243 kts 231°
2026-05-04 13:32 48.44647 10.58815 8964 ft 242 kts 231°
2026-05-04 13:33 48.43447 10.57010 8962 ft 242 kts 231°
2026-05-04 13:33 48.42267 10.55231 8965 ft 242 kts 231°
2026-05-04 13:33 48.41077 10.53447 8963 ft 243 kts 231°
2026-05-04 13:33 48.39887 10.51655 8968 ft 244 kts 231°
2026-05-04 13:34 48.38682 10.49845 8972 ft 244 kts 231°
2026-05-04 13:34 48.37477 10.48037 8973 ft 244 kts 231°
2026-05-04 13:34 48.36281 10.46246 8974 ft 245 kts 231°
2026-05-04 13:34 48.35068 10.44429 8978 ft 245 kts 231°
2026-05-04 13:35 48.33868 10.42633 8979 ft 245 kts 231°
2026-05-04 13:35 48.31457 10.39026 8982 ft 243 kts 231°
2026-05-04 13:35 48.30255 10.37231 8983 ft 244 kts 231°
2026-05-04 13:36 48.29046 10.35426 8986 ft 244 kts 231°
2026-05-04 13:36 48.27844 10.33633 8992 ft 244 kts 230°
2026-05-04 13:36 48.26638 10.31835 8996 ft 244 kts 230°
2026-05-04 13:36 48.25434 10.30043 8993 ft 244 kts 230°
2026-05-04 13:37 48.24238 10.28264 8988 ft 245 kts 231°
2026-05-04 13:37 48.23013 10.26437 8992 ft 246 kts 230°
2026-05-04 13:37 48.21808 10.24646 8991 ft 245 kts 230°
2026-05-04 13:37 48.20996 10.23466 8987 ft 246 kts 227°
2026-05-04 13:38 48.18921 10.21904 8989 ft 255 kts 208°
2026-05-04 13:38 48.17279 10.20890 8986 ft 255 kts 208°
2026-05-04 13:38 48.15643 10.19862 8982 ft 255 kts 208°
2026-05-04 13:38 48.14010 10.18827 8982 ft 255 kts 208°
2026-05-04 13:39 48.12363 10.17778 8980 ft 256 kts 208°
2026-05-04 13:39 48.10723 10.16733 8984 ft 257 kts 208°
2026-05-04 13:39 48.09094 10.15697 8987 ft 257 kts 208°
2026-05-04 13:39 48.07444 10.14646 8985 ft 256 kts 208°
2026-05-04 13:40 48.05813 10.13607 8987 ft 256 kts 208°
2026-05-04 13:40 48.04179 10.12567 8989 ft 256 kts 208°
2026-05-04 13:40 48.02531 10.11518 8990 ft 257 kts 208°
2026-05-04 13:40 48.00888 10.10475 8994 ft 256 kts 208°
2026-05-04 13:41 47.99266 10.09445 8996 ft 256 kts 208°
2026-05-04 13:41 47.97631 10.08405 8994 ft 257 kts 208°
2026-05-04 13:41 47.95988 10.07364 8995 ft 257 kts 208°
2026-05-04 13:42 47.92711 10.05289 8994 ft 256 kts 209°
2026-05-04 13:42 47.91067 10.04247 8991 ft 256 kts 209°
2026-05-04 13:42 47.89444 10.03221 8988 ft 255 kts 209°
2026-05-04 13:42 47.87801 10.02182 8985 ft 254 kts 209°
2026-05-04 13:43 47.86193 10.01167 8985 ft 253 kts 209°
2026-05-04 13:43 47.84685 9.99933 8978 ft 247 kts 219°
2026-05-04 13:43 47.83367 9.98333 8970 ft 239 kts 233°
2026-05-04 13:43 47.82500 9.96310 8974 ft 231 kts 249°
2026-05-04 13:44 47.81941 9.94084 8986 ft 229 kts 249°
2026-05-04 13:44 47.81267 9.91933 8864 ft 234 kts 248°
2026-05-04 13:44 47.80542 9.89714 8552 ft 240 kts 246°
2026-05-04 13:44 47.79796 9.87477 8232 ft 244 kts 246°
2026-05-04 13:45 47.79040 9.85197 7909 ft 247 kts 245°
2026-05-04 13:45 47.78274 9.82906 7586 ft 248 kts 245°
2026-05-04 13:45 47.77506 9.80612 7263 ft 249 kts 245°
2026-05-04 13:45 47.76736 9.78315 6939 ft 250 kts 245°
2026-05-04 13:46 47.75960 9.76001 6614 ft 251 kts 245°
2026-05-04 13:46 47.75229 9.73624 6272 ft 252 kts 253°
2026-05-04 13:46 47.75305 9.71085 5952 ft 252 kts 290°
2026-05-04 13:46 47.76447 9.69215 5938 ft 245 kts 326°
2026-05-04 13:47 47.77963 9.68173 5962 ft 238 kts 336°
2026-05-04 13:47 47.79617 9.67964 5958 ft 239 kts 359°
2026-05-04 13:47 47.81248 9.68172 5964 ft 237 kts
2026-05-04 13:47 47.82873 9.68411 5962 ft 234 kts
2026-05-04 13:48 47.84492 9.68650 5963 ft 233 kts
2026-05-04 13:48 47.86103 9.68888 5964 ft 231 kts
2026-05-04 13:48 47.87692 9.69123 5964 ft 230 kts
2026-05-04 13:48 47.89281 9.69358 5965 ft 229 kts
2026-05-04 13:49 47.90859 9.69591 5964 ft 228 kts
2026-05-04 13:49 47.92440 9.69825 5964 ft 227 kts
2026-05-04 13:49 47.94004 9.70056 5964 ft 226 kts
2026-05-04 13:49 47.95560 9.70286 5964 ft 224 kts
2026-05-04 13:50 47.97094 9.70514 5964 ft 223 kts
2026-05-04 13:50 47.98643 9.70743 5964 ft 222 kts
2026-05-04 13:50 48.00161 9.70967 5964 ft 220 kts
2026-05-04 13:50 48.01662 9.70685 5876 ft 217 kts 342°
2026-05-04 13:51 48.03124 9.70120 5629 ft 219 kts 343°
2026-05-04 13:51 48.04567 9.69597 5372 ft 211 kts 345°
2026-05-04 13:51 48.05971 9.69061 5036 ft 207 kts 339°
2026-05-04 13:51 48.06946 9.67615 4827 ft 199 kts 296°
2026-05-04 13:52 48.07803 9.63833 4545 ft 187 kts 290°
2026-05-04 13:52 48.08213 9.61996 4383 ft 185 kts 291°
2026-05-04 13:52 48.08617 9.60193 4209 ft 184 kts 290°
2026-05-04 13:53 48.08756 9.58288 3966 ft 190 kts 262°
2026-05-04 13:53 48.08414 9.56366 3758 ft 192 kts 258°
2026-05-04 13:53 48.08102 9.54442 3542 ft 193 kts 259°
2026-05-04 13:54 48.07512 9.50705 3438 ft 166 kts 259°
2026-05-04 13:54 48.07274 9.49203 3395 ft 139 kts 259°
2026-05-04 13:54 48.06852 9.46521 2964 ft 128 kts 258°
2026-05-04 13:55 48.06647 9.45225 2776 ft 125 kts 258°
2026-05-04 13:55 48.06260 9.42787 2434 ft 109 kts 258°
2026-05-04 13:55 48.06103 9.41792 2344 ft 92 kts 258°
2026-05-04 13:56 48.05960 9.40895 2202 ft 86 kts 258°
2026-05-04 13:56 48.05831 9.40038 2069 ft 83 kts 258°
2026-05-04 13:56 48.05570 9.38372 1840 ft 82 kts 257°
2026-05-04 13:57 48.05450 9.37619 1808 ft 61 kts 257°
2026-05-04 13:57 48.05386 9.37208 1809 ft 27 kts 257°
2026-05-04 13:58 48.05290 9.36609 1814 ft 20 kts 256°
2026-05-04 13:58 48.05224 9.36199 1814 ft 14 kts 257°
2026-05-04 13:58 48.05252 9.36127 1814 ft 7 kts 326°
2026-05-04 13:59 48.05301 9.36077 1814 ft 9 kts 325°
2026-05-04 13:59 48.05365 9.36050 1814 ft 10 kts 11°
2026-05-04 13:59 48.05437 9.36211 1814 ft 6 kts 72°
2026-05-04 14:00 48.05447 9.36257 1814 ft 3 kts 71°
2026-05-04 14:00 48.05475 9.36377 1814 ft 8 kts 72°
2026-05-04 14:00 48.05492 9.36465 1814 ft 4 kts 79°
2026-05-04 14:01 48.05483 9.36506 1814 ft 3 kts 147°
2026-05-04 14:01 48.05479 9.36532 1814 ft 2 kts 82°
2026-05-04 14:01 48.05487 9.36554 1814 ft 0 kts 348°
2026-05-04 14:07 48.05486 9.36555 1814 ft 0 kts 357°
2026-05-04 14:08 48.05480 9.36555 1814 ft 0 kts
2026-05-04 14:08 48.05474 9.36555 1814 ft 0 kts 354°
2026-05-04 14:08 48.05473 9.36555 1814 ft 0 kts 351°